Miscellaneous Local Product
Issued by NWS North Platte, NE

Home | Current Version | Previous Version | Graphics & Text | Print | Product List | Glossary On
Versions: 1 2 3 4 5 6 7 8 9 10 11 12 13 14 15 16 17 18 19 20 21 22 23 24 25 26 27 28 29 30 31 32 33 34 35 36 37 38 39 40 41 42 43 44 45 46 47 48 49 50
026
AXUS43 KLBF 010110
MISLBF


WESTERN AND NORTH CENTRAL NEBRASKA HOURLY WEATHER ROUNDUP
NATIONAL WEATHER SERVICE NORTH PLATTE NE
800 PM CDT SAT APR 30 2016

NOTE: "FAIR" INDICATES FEW OR NO CLOUDS BELOW 12,000 FEET WITH NO
SIGNIFICANT WEATHER AND/OR OBSTRUCTIONS TO VISIBILITY.

NOTE: STATIONS NOT REPORTING VARIABLES SUCH AS SKY/WEATHER OR
PRESSURE ARE PROVIDED BY RAWS AND APRS NETWORKS AND ARE NOT UNDER
NATIONAL WEATHER SERVICE QUALITY CONTROL.

...OBSERVATIONS IN AND NEAR THE EASTERN PANHANDLE OF NEBRASKA...

CITY           SKY/WX    TMP DP  RH WIND       PRES   REMARKS
PINE RIDGE     LGT RAIN  41  34  76 NE14G21   30.09R
CHADRON        CLOUDY    45  32  60 NE13      30.10R
ALLIANCE       CLOUDY    34  33  96 N16       30.04S WCI  24
SIDNEY         LGT SNOW  33  32  96 N22       30.04R VSB 3/4 WCI  21
CRESCENT LAKE    N/A     34  33  96 N20G26      N/A  WCI  23
$$

...OBSERVATIONS IN NORTHERN NEBRASKA AND FAR SOUTHERN SOUTH DAKOTA...

CITY           SKY/WX    TMP DP  RH WIND       PRES   REMARKS
WINNER         LGT RAIN  43  38  82 NE25G35   30.05R
VALENTINE      LGT RAIN  39  36  89 NE22G33   30.02R WCI  29
THEDFORD       CLOUDY    34  33  97 N15G21    29.96R WCI  24
AINSWORTH      LGT RAIN  39  38  94 NE30G36   29.98R WCI  27
O`NEILL        LGT RAIN  43  41  94 NE21      29.93R
ORD            LGT RAIN  44  42  93 N15       29.86R
BROKEN BOW     LGT RAIN  41  39  93 N14       29.87S FOG
VALENTINE NWR    N/A     36  35  96 N13G24      N/A  WCI  27
BUTTE            N/A     40  39  96 NE24G39     N/A  WCI  29
HALSEY           N/A     33  32  98 N9G20       N/A  WCI  25
CHAMBERS         N/A     43  42  97 N13         N/A
EWING            N/A     43  42  96 NE7         N/A
$$

...OBSERVATIONS IN SOUTHWEST NEBRASKA AND FAR NORTHEAST COLORADO...

CITY           SKY/WX    TMP DP  RH WIND       PRES   REMARKS
HOLYOKE        LGT RAIN  36  34  93 N22G30      N/A  WCI  24
IMPERIAL       CLOUDY    36  33  89 N20G26    29.96R WCI  25
OGALLALA       DRIZZLE   36  33  91 N15G24    29.98R WCI  26
NORTH PLATTE   FLURRIES  35  33  92 N18G24    29.92R WCI  24
MCCOOK         CLOUDY    39  35  86 N16       29.90R WCI  30
LEXINGTON      DRIZZLE   39  36  89 N14G22    29.88R WCI  31
STAPLETON        N/A     34  32  93 CALM        N/A
GOTHENBURG       N/A     37  33  86 N15         N/A  WCI  28
CALLAWAY         N/A     33  32  97 N12         N/A  WCI  24
$$

...OBSERVATIONS IN CENTRAL LINCOLN COUNTY AREA...

CITY           SKY/WX    TMP DP  RH WIND       PRES   REMARKS
N.P. AIRPORT   FLURRIES  35  33  92 N18G24    29.92R WCI  24
N.P. DOWNTOWN    N/A     34  33  96 N12         N/A  WCI  25
N.P. SOUTHEAST   N/A     34  33  96 N12G21      N/A  WCI  25
N.P. HILLCREST   N/A     34  33  96 NE18G26     N/A  WCI  23
$$

...SOME OBSERVATIONS FROM AROUND THE REGION...

CITY           SKY/WX    TMP DP  RH WIND       PRES   REMARKS
DENVER         LGT SNOW  34  30  85 N20       30.10R WCI  23
LARAMIE        CLOUDY    29  26  89 N12       30.11R WCI  19
CHEYENNE       LGT SNOW  32  29  88 N17G25    30.10R FOG     WCI  21
SCOTTSBLUFF    LGT RAIN  38  32  79 NW9       30.10R WCI  31
RAPID CITY     CLOUDY    49  32  52 NE16      30.14R
BISMARCK       CLOUDY    57  28  33 NE12      30.21R
PIERRE         CLOUDY    52  37  56 NE12      30.08R
SIOUX FALLS    CLOUDY    44  40  85 E17       30.01R
OMAHA          CLOUDY    50  48  93 E14       29.81S
GRAND ISLAND   LGT RAIN  46  44  93 N9        29.83R FOG
KANSAS CITY    MOCLDY    60  49  66 NW3       29.79R
WICHITA        PTCLDY    57  40  52 W10       29.84R
OKLAHOMA CITY  CLEAR     65  45  48 N14       29.84R
DALLAS         PTCLDY    71  58  63 N5        29.79R
AMARILLO       PTCLDY    55  38  52 N10       29.93R
DODGE CITY     CLOUDY    47  34  60 NW16      29.90R
HAYS           CLOUDY    48  34  57 NW15G21   29.86R
GOODLAND       CLOUDY    36  33  89 N18       29.93R WCI  26
$$




USA.gov is the U.S. government's official web portal to all federal, state and local government web resources and services.